Meteo pe oră la Aljustrel

Astăzi, 17 Ianuarie, Duminică

Timp Temperatura Precipitaţii Vânt Presiune Umiditate
00:00 +4°C° 0 mm 2 m/s 757 mmHg 75%
01:00 +4°C° 0 mm 2 m/s 757 mmHg 72%
02:00 +4°C° 0 mm 2 m/s 756 mmHg 70%
03:00 +4°C° 0 mm 2 m/s 756 mmHg 69%
04:00 +5°C° 0 mm 1 m/s 757 mmHg 68%
05:00 +4°C° 0 mm 1 m/s 757 mmHg 67%
06:00 +5°C° 0 mm 1 m/s 757 mmHg 66%
07:00 +6°C° 0 mm 1 m/s 757 mmHg 65%
08:00 +7°C° 0 mm 1 m/s 757 mmHg 63%
09:00 +9°C° 0 mm 1 m/s 757 mmHg 58%
10:00 +12°C° 0 mm 1 m/s 757 mmHg 52%
11:00 +14°C° 0 mm 1 m/s 758 mmHg 46%
12:00 +15°C° 0 mm 1 m/s 757 mmHg 46%
13:00 +15°C° 0 mm 2 m/s 756 mmHg 46%
14:00 +16°C° 0 mm 2 m/s 756 mmHg 47%
15:00 +14°C° 0 mm 1 m/s 756 mmHg 55%
16:00 +12°C° 0 mm 1 m/s 756 mmHg 63%
17:00 +10°C° 0 mm 1 m/s 756 mmHg 72%
18:00 +9°C° 0 mm 1 m/s 756 mmHg 73%
19:00 +8°C° 0 mm 1 m/s 756 mmHg 74%
20:00 +7°C° 0 mm 1 m/s 756 mmHg 75%
21:00 +7°C° 0 mm 1 m/s 756 mmHg 75%
22:00 +7°C° 0 mm 1 m/s 756 mmHg 75%
23:00 +6°C° 0 mm 1 m/s 756 mmHg 74%

Mâine, 18 Ianuarie, Luni

Timp Temperatura Precipitaţii Vânt Presiune Umiditate
00:00 +6°C° 0 mm 1 m/s 756 mmHg 75%
01:00 +5°C° 0 mm 1 m/s 755 mmHg 75%
02:00 +5°C° 0 mm 1 m/s 755 mmHg 75%
03:00 +5°C° 0 mm 1 m/s 754 mmHg 74%
04:00 +4°C° 0 mm 1 m/s 754 mmHg 73%
05:00 +4°C° 0 mm 1 m/s 754 mmHg 72%
06:00 +5°C° 0 mm 1 m/s 755 mmHg 70%
07:00 +6°C° 0 mm 1 m/s 755 mmHg 69%
08:00 +6°C° 0 mm 1 m/s 755 mmHg 67%
09:00 +9°C° 0 mm 1 m/s 755 mmHg 61%
10:00 +11°C° 0 mm 1 m/s 756 mmHg 55%
11:00 +14°C° 0 mm 1 m/s 756 mmHg 50%
12:00 +14°C° 0 mm 1 m/s 755 mmHg 49%
13:00 +15°C° 0 mm 1 m/s 755 mmHg 48%
14:00 +16°C° 0 mm 1 m/s 754 mmHg 47%
15:00 +14°C° 0 mm 1 m/s 754 mmHg 56%
16:00 +12°C° 0 mm 1 m/s 754 mmHg 65%
17:00 +10°C° 0 mm 1 m/s 754 mmHg 74%
18:00 +9°C° 0 mm 1 m/s 754 mmHg 77%
19:00 +8°C° 0 mm 1 m/s 754 mmHg 80%
20:00 +8°C° 0 mm 1 m/s 755 mmHg 83%
21:00 +7°C° 0 mm 1 m/s 755 mmHg 85%
22:00 +7°C° 0 mm 1 m/s 755 mmHg 86%
23:00 +7°C° 0 mm 1 m/s 755 mmHg 88%

Poimâine, 19 Ianuarie, Marţi

Timp Temperatura Precipitaţii Vânt Presiune Umiditate
00:00 +7°C° 0 mm 1 m/s 754 mmHg 88%
01:00 +6°C° 0 mm 1 m/s 754 mmHg 89%
02:00 +6°C° 0 mm 1 m/s 754 mmHg 90%
03:00 +6°C° 0 mm 1 m/s 753 mmHg 91%
04:00 +6°C° 0 mm 1 m/s 753 mmHg 91%
05:00 +6°C° 0 mm 1 m/s 753 mmHg 92%
06:00 +6°C° 0 mm 2 m/s 753 mmHg 91%
07:00 +7°C° 0 mm 2 m/s 753 mmHg 91%
08:00 +7°C° 0 mm 2 m/s 753 mmHg 90%
09:00 +9°C° 0 mm 3 m/s 753 mmHg 84%
10:00 +11°C° 0 mm 3 m/s 753 mmHg 78%
11:00 +13°C° 0 mm 4 m/s 753 mmHg 72%
12:00 +13°C° 0 mm 4 m/s 752 mmHg 71%
13:00 +14°C° 0 mm 4 m/s 752 mmHg 70%
14:00 +14°C° 0 mm 4 m/s 751 mmHg 68%
15:00 +13°C° 0 mm 4 m/s 751 mmHg 72%
16:00 +12°C° 0 mm 4 m/s 750 mmHg 77%
17:00 +11°C° 0 mm 3 m/s 750 mmHg 81%
18:00 +10°C° 0 mm 3 m/s 750 mmHg 84%
19:00 +10°C° 0 mm 3 m/s 750 mmHg 86%
20:00 +9°C° 0 mm 3 m/s 750 mmHg 89%
21:00 +10°C° 0 mm 4 m/s 749 mmHg 88%
22:00 +10°C° 0 mm 4 m/s 749 mmHg 87%
23:00 +10°C° 0 mm 4 m/s 748 mmHg 86%

20 Ianuarie, Miercuri

Timp Temperatura Precipitaţii Vânt Presiune Umiditate
00:00 +10°C° 0 mm 5 m/s 747 mmHg 85%
01:00 +10°C° 0 mm 6 m/s 746 mmHg 83%
02:00 +11°C° 0 mm 6 m/s 745 mmHg 82%
03:00 +11°C° 1.4 mm 7 m/s 745 mmHg 85%
04:00 +11°C° 1.4 mm 8 m/s 744 mmHg 89%
05:00 +11°C° 1.4 mm 8 m/s 743 mmHg 92%
06:00 +12°C° 2.2 mm 7 m/s 743 mmHg 91%
07:00 +13°C° 2.2 mm 6 m/s 743 mmHg 90%
08:00 +13°C° 2.2 mm 5 m/s 744 mmHg 89%
09:00 +13°C° 0.1 mm 6 m/s 744 mmHg 84%
10:00 +14°C° 0.1 mm 7 m/s 744 mmHg 78%
11:00 +14°C° 0.1 mm 7 m/s 745 mmHg 73%
12:00 +14°C° 0.1 mm 7 m/s 744 mmHg 72%
13:00 +14°C° 0.1 mm 7 m/s 744 mmHg 72%
14:00 +14°C° 0.1 mm 7 m/s 744 mmHg 72%
15:00 +13°C° 0.1 mm 6 m/s 744 mmHg 76%
16:00 +12°C° 0.1 mm 5 m/s 745 mmHg 81%
17:00 +11°C° 0.1 mm 4 m/s 745 mmHg 86%
18:00 +11°C° 0 mm 4 m/s 746 mmHg 89%
19:00 +11°C° 0 mm 4 m/s 746 mmHg 91%
20:00 +10°C° 0 mm 4 m/s 747 mmHg 93%
21:00 +10°C° 0.1 mm 4 m/s 747 mmHg 93%
22:00 +10°C° 0.1 mm 3 m/s 747 mmHg 93%
23:00 +10°C° 0.1 mm 3 m/s 748 mmHg 94%

21 Ianuarie, Joi

Timp Temperatura Precipitaţii Vânt Presiune Umiditate
00:00 +10°C° 0 mm 3 m/s 748 mmHg 94%
01:00 +10°C° 0 mm 3 m/s 748 mmHg 94%
02:00 +10°C° 0 mm 3 m/s 748 mmHg 95%
03:00 +10°C° 0.1 mm 3 m/s 748 mmHg 95%
04:00 +10°C° 0.1 mm 3 m/s 748 mmHg 95%
05:00 +10°C° 0.1 mm 3 m/s 748 mmHg 95%
06:00 +10°C° 0 mm 3 m/s 748 mmHg 95%
07:00 +11°C° 0 mm 3 m/s 749 mmHg 94%
08:00 +11°C° 0 mm 4 m/s 749 mmHg 93%
09:00 +13°C° 0 mm 5 m/s 749 mmHg 86%
10:00 +14°C° 0 mm 6 m/s 749 mmHg 80%
11:00 +15°C° 0 mm 8 m/s 749 mmHg 74%
12:00 +16°C° 0 mm 8 m/s 748 mmHg 74%
13:00 +16°C° 0 mm 8 m/s 748 mmHg 73%
14:00 +16°C° 0 mm 8 m/s 747 mmHg 73%
15:00 +16°C° 0.3 mm 8 m/s 747 mmHg 80%
16:00 +16°C° 0.3 mm 8 m/s 747 mmHg 86%
17:00 +15°C° 0.3 mm 8 m/s 746 mmHg 92%
18:00 +15°C° 0.2 mm 7 m/s 747 mmHg 93%
19:00 +14°C° 0.2 mm 6 m/s 747 mmHg 94%
20:00 +14°C° 0.2 mm 5 m/s 748 mmHg 95%
21:00 +13°C° 0.1 mm 5 m/s 748 mmHg 95%
22:00 +13°C° 0.1 mm 5 m/s 748 mmHg 95%
23:00 +13°C° 0.1 mm 5 m/s 749 mmHg 95%

22 Ianuarie, Vineri

Timp Temperatura Precipitaţii Vânt Presiune Umiditate
00:00 +12°C° 0 mm 4 m/s 749 mmHg 94%
01:00 +12°C° 0 mm 4 m/s 749 mmHg 94%
02:00 +11°C° 0 mm 4 m/s 749 mmHg 94%
03:00 +11°C° 0 mm 4 m/s 749 mmHg 93%
04:00 +11°C° 0 mm 4 m/s 750 mmHg 93%
05:00 +10°C° 0 mm 3 m/s 750 mmHg 93%
06:00 +11°C° 0 mm 3 m/s 750 mmHg 92%
07:00 +11°C° 0 mm 3 m/s 751 mmHg 91%
08:00 +11°C° 0 mm 3 m/s 752 mmHg 89%
09:00 +12°C° 0 mm 4 m/s 752 mmHg 85%
10:00 +13°C° 0 mm 5 m/s 752 mmHg 80%
11:00 +15°C° 0 mm 6 m/s 752 mmHg 75%
12:00 +15°C° 0 mm 6 m/s 752 mmHg 73%
13:00 +15°C° 0 mm 6 m/s 752 mmHg 72%
14:00 +16°C° 0 mm 6 m/s 751 mmHg 70%
15:00 +14°C° 0.1 mm 6 m/s 751 mmHg 78%
16:00 +13°C° 0.1 mm 5 m/s 752 mmHg 85%
17:00 +12°C° 0.1 mm 4 m/s 752 mmHg 93%
18:00 +11°C° 0 mm 3 m/s 752 mmHg 94%
19:00 +11°C° 0 mm 3 m/s 753 mmHg 95%
20:00 +10°C° 0 mm 2 m/s 753 mmHg 97%
21:00 +10°C° 0 mm 2 m/s 753 mmHg 96%
22:00 +10°C° 0 mm 1 m/s 753 mmHg 96%
23:00 +10°C° 0 mm 1 m/s 753 mmHg 95%
Arată mai mult

Formular de consimțământ

Meteoprog și furnizorii noștri de servicii pot stoca și accesa date personale, precum cookies, identificatori de dispozitiv sau alte tehnologii similare pe dispozitivul dumneavoastră și procesa astfel de date pentru a personaliza conținutul și reclamele, dar și pentru a oferi caracteristici de social media și pentru a analiza traficul.

  • Stocarea și/sau accesarea informațiilor pe dispozitivul dumneavoastră

    Cookies, identificatori de dispozitiv sau alte informații pot fi stocate sau accesate pe dispozitiv în scopurile indicate mai sus.

  • Reclame și conținut personalizat, evaluarea reclamelor și a conținutului, informații despre audiențe și dezvoltarea produselor

    Reclamele și conținutul pot fi personalizate pe baza unui profil. Pot fi adăugate date suplimentare pentru a personaliza mai bine reclamele și conținutul. Performanța reclamelor și conținutului poate fi măsurată. Pot fi obținute informații despre utilizatorii care au văzut reclamele și conținutul. Aceste date pot fi utilizate pentru a dezvolta sau îmbunătăți experiența utilizatorilor, sistemele și software-ul.

Dând clic pe ‘Sunt de acord’, permiteți utilizarea cookie-urilor menționate, a identificatorilor de dispozitiv, balizelor web sau altor tehnologii similare. Setările pot fi modificate din browser-ul dispozitivului dumneavoastră.

În anumite scopuri, interesele legitime pot prima asupra consimțământului. Puteți citi mai multe informații în acest sens în Politica privind Confidențialitatea Datelor și Cookie.